Year,Month,Day,Hour,Minute,Value (Times are PST for temperature in C)
2017,06,25,00,00,17.00
2017,06,25,00,01,17.00
2017,06,25,00,02,16.90
2017,06,25,00,03,16.90
2017,06,25,00,04,16.90
2017,06,25,00,05,16.80
2017,06,25,00,06,16.80
2017,06,25,00,07,16.80
2017,06,25,00,08,16.70
2017,06,25,00,09,16.70
2017,06,25,00,10,16.60
2017,06,25,00,11,16.60
2017,06,25,00,12,16.60
2017,06,25,00,13,16.50
2017,06,25,00,14,16.50
2017,06,25,00,15,16.40
2017,06,25,00,16,16.40
2017,06,25,00,17,16.40
2017,06,25,00,18,16.30
2017,06,25,00,19,16.30
2017,06,25,00,20,16.30
2017,06,25,00,21,16.20
2017,06,25,00,22,16.20
2017,06,25,00,23,16.20
2017,06,25,00,24,16.20
2017,06,25,00,25,16.20
2017,06,25,00,26,16.20
2017,06,25,00,27,16.20
2017,06,25,00,28,16.10
2017,06,25,00,29,16.10
2017,06,25,00,30,16.10
2017,06,25,00,31,16.10
2017,06,25,00,32,16.10
2017,06,25,00,33,16.00
2017,06,25,00,34,16.00
2017,06,25,00,35,16.00
2017,06,25,00,36,16.00
2017,06,25,00,37,15.90
2017,06,25,00,38,15.90
2017,06,25,00,39,15.90
2017,06,25,00,40,15.90
2017,06,25,00,41,15.90
2017,06,25,00,42,15.90
2017,06,25,00,43,15.90
2017,06,25,00,44,15.80
2017,06,25,00,45,15.80
2017,06,25,00,46,15.80
2017,06,25,00,47,15.80
2017,06,25,00,48,15.80
2017,06,25,00,49,15.80
2017,06,25,00,50,15.70
2017,06,25,00,51,15.70
2017,06,25,00,52,15.70
2017,06,25,00,53,15.70
2017,06,25,00,54,15.70
2017,06,25,00,55,15.60
2017,06,25,00,56,15.60
2017,06,25,00,57,15.60
2017,06,25,00,58,15.60
2017,06,25,00,59,15.60
2017,06,25,01,00,15.60
2017,06,25,01,01,15.60
2017,06,25,01,02,15.60
2017,06,25,01,03,15.60
2017,06,25,01,04,15.60
2017,06,25,01,05,15.60
2017,06,25,01,06,15.60
2017,06,25,01,07,15.50
2017,06,25,01,08,15.50
2017,06,25,01,09,15.50
2017,06,25,01,10,15.50
2017,06,25,01,11,15.40
2017,06,25,01,12,15.40
2017,06,25,01,13,15.40
2017,06,25,01,14,15.40
2017,06,25,01,15,15.40
2017,06,25,01,16,15.30
2017,06,25,01,17,15.30
2017,06,25,01,18,15.30
2017,06,25,01,19,15.30
2017,06,25,01,20,15.30
2017,06,25,01,21,15.30
2017,06,25,01,22,15.30
2017,06,25,01,23,15.20
2017,06,25,01,24,15.20
2017,06,25,01,25,15.20
2017,06,25,01,26,15.20
2017,06,25,01,27,15.20
2017,06,25,01,28,15.30
2017,06,25,01,29,15.30
2017,06,25,01,30,15.20
2017,06,25,01,31,15.20
2017,06,25,01,32,15.20
2017,06,25,01,33,15.20
2017,06,25,01,34,15.10
2017,06,25,01,35,15.10
2017,06,25,01,36,15.10
2017,06,25,01,37,15.10
2017,06,25,01,38,15.00
2017,06,25,01,39,15.00
2017,06,25,01,40,15.00
2017,06,25,01,41,15.00
2017,06,25,01,42,15.00
2017,06,25,01,43,15.00
2017,06,25,01,44,15.00
2017,06,25,01,45,15.00
2017,06,25,01,46,14.90
2017,06,25,01,47,14.90
2017,06,25,01,48,14.90
2017,06,25,01,49,14.90
2017,06,25,01,50,14.90
2017,06,25,01,51,14.90
2017,06,25,01,52,14.90
2017,06,25,01,53,14.90
2017,06,25,01,54,14.90
2017,06,25,01,55,14.90
2017,06,25,01,56,14.90
2017,06,25,01,57,14.90
2017,06,25,01,58,14.90
2017,06,25,01,59,14.90
2017,06,25,02,00,14.90
2017,06,25,02,01,14.90
2017,06,25,02,02,14.90
2017,06,25,02,03,14.90
2017,06,25,02,04,15.00
2017,06,25,02,05,15.00
2017,06,25,02,06,15.00
2017,06,25,02,07,15.00
2017,06,25,02,08,15.10
2017,06,25,02,09,15.10
2017,06,25,02,10,15.10
2017,06,25,02,11,15.10
2017,06,25,02,12,15.10
2017,06,25,02,13,15.10
2017,06,25,02,14,15.10
2017,06,25,02,15,15.10
2017,06,25,02,16,15.10
2017,06,25,02,17,15.10
2017,06,25,02,18,15.10
2017,06,25,02,19,15.10
2017,06,25,02,20,15.10
2017,06,25,02,21,15.00
2017,06,25,02,22,15.00
2017,06,25,02,23,15.00
2017,06,25,02,24,14.90
2017,06,25,02,25,14.90
2017,06,25,02,26,14.80
2017,06,25,02,27,14.80
2017,06,25,02,28,14.80
2017,06,25,02,29,14.80
2017,06,25,02,30,14.80
2017,06,25,02,31,14.70
2017,06,25,02,32,14.70
2017,06,25,02,33,14.70
2017,06,25,02,34,14.70
2017,06,25,02,35,14.70
2017,06,25,02,36,14.60
2017,06,25,02,37,14.60
2017,06,25,02,38,14.60
2017,06,25,02,39,14.60
2017,06,25,02,40,14.60
2017,06,25,02,41,14.50
2017,06,25,02,42,14.50
2017,06,25,02,43,14.50
2017,06,25,02,44,14.40
2017,06,25,02,45,14.40
2017,06,25,02,46,14.40
2017,06,25,02,47,14.40
2017,06,25,02,48,14.40
2017,06,25,02,49,14.40
2017,06,25,02,50,14.40
2017,06,25,02,51,14.40
2017,06,25,02,52,14.40
2017,06,25,02,53,14.40
2017,06,25,02,54,14.40
2017,06,25,02,55,14.40
2017,06,25,02,56,14.30
2017,06,25,02,57,14.30
2017,06,25,02,58,14.30
2017,06,25,02,59,14.30
2017,06,25,03,00,14.30
2017,06,25,03,01,14.30
2017,06,25,03,02,14.30
2017,06,25,03,03,14.30
2017,06,25,03,04,14.30
2017,06,25,03,05,14.30
2017,06,25,03,06,14.20
2017,06,25,03,07,14.20
2017,06,25,03,08,14.20
2017,06,25,03,09,14.20
2017,06,25,03,10,14.20
2017,06,25,03,11,14.10
2017,06,25,03,12,14.10
2017,06,25,03,13,14.10
2017,06,25,03,14,14.10
2017,06,25,03,15,14.10
2017,06,25,03,16,14.10
2017,06,25,03,17,14.10
2017,06,25,03,18,14.00
2017,06,25,03,19,14.00
2017,06,25,03,20,14.00
2017,06,25,03,21,13.90
2017,06,25,03,22,13.90
2017,06,25,03,23,13.90
2017,06,25,03,24,13.90
2017,06,25,03,25,13.90
2017,06,25,03,26,13.90
2017,06,25,03,27,13.80
2017,06,25,03,28,13.80
2017,06,25,03,29,13.80
2017,06,25,03,30,13.80
2017,06,25,03,31,13.80
2017,06,25,03,32,13.80
2017,06,25,03,33,13.70
2017,06,25,03,34,13.70
2017,06,25,03,35,13.70
2017,06,25,03,36,13.70
2017,06,25,03,37,13.70
2017,06,25,03,38,13.60
2017,06,25,03,39,13.60
2017,06,25,03,40,13.60
2017,06,25,03,41,13.60
2017,06,25,03,42,13.50
2017,06,25,03,43,13.50
2017,06,25,03,44,13.40
2017,06,25,03,45,13.40
2017,06,25,03,46,13.40
2017,06,25,03,47,13.40
2017,06,25,03,48,13.30
2017,06,25,03,49,13.30
2017,06,25,03,50,13.30
2017,06,25,03,51,13.30
2017,06,25,03,52,13.30
2017,06,25,03,53,13.30
2017,06,25,03,54,13.30
2017,06,25,03,55,13.30
2017,06,25,03,56,13.30
2017,06,25,03,57,13.30
2017,06,25,03,58,13.30
2017,06,25,03,59,13.30
2017,06,25,04,00,13.30
2017,06,25,04,01,13.30
2017,06,25,04,02,13.30
2017,06,25,04,03,13.30
2017,06,25,04,04,13.20
2017,06,25,04,05,13.20
2017,06,25,04,06,13.20
2017,06,25,04,07,13.20
2017,06,25,04,08,13.20
2017,06,25,04,09,13.10
2017,06,25,04,10,13.10
2017,06,25,04,11,13.10
2017,06,25,04,12,13.10
2017,06,25,04,13,13.10
2017,06,25,04,14,13.10
2017,06,25,04,15,13.10
2017,06,25,04,16,13.10
2017,06,25,04,17,13.10
2017,06,25,04,18,13.00
2017,06,25,04,19,13.00
2017,06,25,04,20,13.00
2017,06,25,04,21,13.00
2017,06,25,04,22,13.00
2017,06,25,04,23,13.00
2017,06,25,04,24,13.00
2017,06,25,04,25,13.00
2017,06,25,04,26,13.00
2017,06,25,04,27,13.00
2017,06,25,04,28,12.90
2017,06,25,04,29,12.90
2017,06,25,04,30,12.90
2017,06,25,04,31,12.90
2017,06,25,04,32,12.90
2017,06,25,04,33,12.90
2017,06,25,04,34,12.80
2017,06,25,04,35,12.80
2017,06,25,04,36,12.80
2017,06,25,04,37,12.80
2017,06,25,04,38,12.80
2017,06,25,04,39,12.80
2017,06,25,04,40,12.80
2017,06,25,04,41,12.80
2017,06,25,04,42,12.80
2017,06,25,04,43,12.80
2017,06,25,04,44,12.80
2017,06,25,04,45,12.80
2017,06,25,04,46,12.80
2017,06,25,04,47,12.80
2017,06,25,04,48,12.80
2017,06,25,04,49,12.80
2017,06,25,04,50,12.80
2017,06,25,04,51,12.80
2017,06,25,04,52,12.80
2017,06,25,04,53,12.70
2017,06,25,04,54,12.70
2017,06,25,04,55,12.70
2017,06,25,04,56,12.70
2017,06,25,04,57,12.70
2017,06,25,04,58,12.70
2017,06,25,04,59,12.70
2017,06,25,05,00,12.60
2017,06,25,05,01,12.60
2017,06,25,05,02,12.60
2017,06,25,05,03,12.60
2017,06,25,05,04,12.60
2017,06,25,05,05,12.60
2017,06,25,05,06,12.60
2017,06,25,05,07,12.60
2017,06,25,05,08,12.60
2017,06,25,05,09,12.60
2017,06,25,05,10,12.60
2017,06,25,05,11,12.60
2017,06,25,05,12,12.60
2017,06,25,05,13,12.60
2017,06,25,05,14,12.60
2017,06,25,05,15,12.60
2017,06,25,05,16,12.60
2017,06,25,05,17,12.60
2017,06,25,05,18,12.60
2017,06,25,05,19,12.60
2017,06,25,05,20,12.60
2017,06,25,05,21,12.60
2017,06,25,05,22,12.60
2017,06,25,05,23,12.50
2017,06,25,05,24,12.50
2017,06,25,05,25,12.50
2017,06,25,05,26,12.50
2017,06,25,05,27,12.50
2017,06,25,05,28,12.50
2017,06,25,05,29,12.50
2017,06,25,05,30,12.50
2017,06,25,05,31,12.40
2017,06,25,05,32,12.40
2017,06,25,05,33,12.40
2017,06,25,05,34,12.40
2017,06,25,05,35,12.40
2017,06,25,05,36,12.40
2017,06,25,05,37,12.40
2017,06,25,05,38,12.40
2017,06,25,05,39,12.40
2017,06,25,05,40,12.40
2017,06,25,05,41,12.40
2017,06,25,05,42,12.40
2017,06,25,05,43,12.40
2017,06,25,05,44,12.40
2017,06,25,05,45,12.40
2017,06,25,05,46,12.40
2017,06,25,05,47,12.40
2017,06,25,05,48,12.40
2017,06,25,05,49,12.40
2017,06,25,05,50,12.40
2017,06,25,05,51,12.40
2017,06,25,05,52,12.40
2017,06,25,05,53,12.40
2017,06,25,05,54,12.40
2017,06,25,05,55,12.40
2017,06,25,05,56,12.40
2017,06,25,05,57,12.50
2017,06,25,05,58,12.50
2017,06,25,05,59,12.50
2017,06,25,06,00,12.50
2017,06,25,06,01,12.50
2017,06,25,06,02,12.50
2017,06,25,06,03,12.60
2017,06,25,06,04,12.60
2017,06,25,06,05,12.60
2017,06,25,06,06,12.60
2017,06,25,06,07,12.60
2017,06,25,06,08,12.60
2017,06,25,06,09,12.60
2017,06,25,06,10,12.60
2017,06,25,06,11,12.50
2017,06,25,06,12,12.50
2017,06,25,06,13,12.40
2017,06,25,06,14,12.40
2017,06,25,06,15,12.40
2017,06,25,06,16,12.40
2017,06,25,06,17,12.40
2017,06,25,06,18,12.40
2017,06,25,06,19,12.40
2017,06,25,06,20,12.30
2017,06,25,06,21,12.40
2017,06,25,06,22,12.40
2017,06,25,06,23,12.40
2017,06,25,06,24,12.40
2017,06,25,06,25,12.40
2017,06,25,06,26,12.40
2017,06,25,06,27,12.40
2017,06,25,06,28,12.40
2017,06,25,06,29,12.50
2017,06,25,06,30,12.50
2017,06,25,06,31,12.50
2017,06,25,06,32,12.50
2017,06,25,06,33,12.60
2017,06,25,06,34,12.60
2017,06,25,06,35,12.60
2017,06,25,06,36,12.60
2017,06,25,06,37,12.60
2017,06,25,06,38,12.60
2017,06,25,06,39,12.60
2017,06,25,06,40,12.60
2017,06,25,06,41,12.60
2017,06,25,06,42,12.60
2017,06,25,06,43,12.60
2017,06,25,06,44,12.70
2017,06,25,06,45,12.70
2017,06,25,06,46,12.70
2017,06,25,06,47,12.70
2017,06,25,06,48,12.70
2017,06,25,06,49,12.70
2017,06,25,06,50,12.70
2017,06,25,06,51,12.70
2017,06,25,06,52,12.70
2017,06,25,06,53,12.70
2017,06,25,06,54,12.70
2017,06,25,06,55,12.70
2017,06,25,06,56,12.80
2017,06,25,06,57,12.80
2017,06,25,06,58,12.90
2017,06,25,06,59,13.00
2017,06,25,07,00,13.00
2017,06,25,07,01,13.10
2017,06,25,07,02,13.10
2017,06,25,07,03,13.20
2017,06,25,07,04,13.20
2017,06,25,07,05,13.20
2017,06,25,07,06,13.30
2017,06,25,07,07,13.40
2017,06,25,07,08,13.50
2017,06,25,07,09,13.60
2017,06,25,07,10,13.70
2017,06,25,07,11,13.80
2017,06,25,07,12,13.90
2017,06,25,07,13,14.00
2017,06,25,07,14,14.10
2017,06,25,07,15,14.20
2017,06,25,07,16,14.30
2017,06,25,07,17,14.40
2017,06,25,07,18,14.40
2017,06,25,07,19,14.50
2017,06,25,07,20,14.50
2017,06,25,07,21,14.50
2017,06,25,07,22,14.60
2017,06,25,07,23,14.60
2017,06,25,07,24,14.70
2017,06,25,07,25,14.80
2017,06,25,07,26,14.80
2017,06,25,07,27,14.90
2017,06,25,07,28,15.00
2017,06,25,07,29,15.10
2017,06,25,07,30,15.20
2017,06,25,07,31,15.30
2017,06,25,07,32,15.30
2017,06,25,07,33,15.40
2017,06,25,07,34,15.50
2017,06,25,07,35,15.60
2017,06,25,07,36,15.60
2017,06,25,07,37,15.70
2017,06,25,07,38,15.80
2017,06,25,07,39,15.90
2017,06,25,07,40,16.00
2017,06,25,07,41,16.10
2017,06,25,07,42,16.20
2017,06,25,07,43,16.30
2017,06,25,07,44,16.50
2017,06,25,07,45,16.60
2017,06,25,07,46,16.60
2017,06,25,07,47,16.70
2017,06,25,07,48,16.70
2017,06,25,07,49,16.70
2017,06,25,07,50,16.70
2017,06,25,07,51,16.80
2017,06,25,07,52,16.80
2017,06,25,07,53,16.80
2017,06,25,07,54,16.80
2017,06,25,07,55,16.80
2017,06,25,07,56,16.80
2017,06,25,07,57,16.90
2017,06,25,07,58,16.90
2017,06,25,07,59,17.00
2017,06,25,08,00,17.10
2017,06,25,08,01,17.20
2017,06,25,08,02,17.30
2017,06,25,08,03,17.30
2017,06,25,08,04,17.40
2017,06,25,08,05,17.40
2017,06,25,08,06,17.40
2017,06,25,08,07,17.50
2017,06,25,08,08,17.50
2017,06,25,08,09,17.60
2017,06,25,08,10,17.60
2017,06,25,08,11,17.60
2017,06,25,08,12,17.70
2017,06,25,08,13,17.70
2017,06,25,08,14,17.80
2017,06,25,08,15,17.80
2017,06,25,08,16,17.90
2017,06,25,08,17,18.00
2017,06,25,08,18,18.00
2017,06,25,08,19,18.10
2017,06,25,08,20,18.20
2017,06,25,08,21,18.30
2017,06,25,08,22,18.40
2017,06,25,08,23,18.50
2017,06,25,08,24,18.60
2017,06,25,08,25,18.70
2017,06,25,08,26,18.80
2017,06,25,08,27,18.90
2017,06,25,08,28,19.00
2017,06,25,08,29,19.20
2017,06,25,08,30,19.30
2017,06,25,08,31,19.40
2017,06,25,08,32,19.40
2017,06,25,08,33,19.50
2017,06,25,08,34,19.50
2017,06,25,08,35,19.60
2017,06,25,08,36,19.60
2017,06,25,08,37,19.70
2017,06,25,08,38,19.80
2017,06,25,08,39,19.90
2017,06,25,08,40,20.00
2017,06,25,08,41,20.10
2017,06,25,08,42,20.20
2017,06,25,08,43,20.20
2017,06,25,08,44,20.20
2017,06,25,08,45,20.20
2017,06,25,08,46,20.30
2017,06,25,08,47,20.30
2017,06,25,08,48,20.30
2017,06,25,08,49,20.30
2017,06,25,08,50,20.40
2017,06,25,08,51,20.40
2017,06,25,08,52,20.50
2017,06,25,08,53,20.60
2017,06,25,08,54,20.60
2017,06,25,08,55,20.60
2017,06,25,08,56,20.70
2017,06,25,08,57,20.70
2017,06,25,08,58,20.70
2017,06,25,08,59,20.80
2017,06,25,09,00,20.90
2017,06,25,09,01,20.90
2017,06,25,09,02,20.90
2017,06,25,09,03,21.00
2017,06,25,09,04,21.00
2017,06,25,09,05,21.10
2017,06,25,09,06,21.20
2017,06,25,09,07,21.20
2017,06,25,09,08,21.30
2017,06,25,09,09,21.30
2017,06,25,09,10,21.40
2017,06,25,09,11,21.40
2017,06,25,09,12,21.50
2017,06,25,09,13,21.60
2017,06,25,09,14,21.70
2017,06,25,09,15,21.70
2017,06,25,09,16,21.70
2017,06,25,09,17,21.80
2017,06,25,09,18,21.80
2017,06,25,09,19,21.80
2017,06,25,09,20,21.90
2017,06,25,09,21,21.90
2017,06,25,09,22,21.90
2017,06,25,09,23,21.90
2017,06,25,09,24,22.00
2017,06,25,09,25,22.00
2017,06,25,09,26,22.10
2017,06,25,09,27,22.10
2017,06,25,09,28,22.10
2017,06,25,09,29,22.20
2017,06,25,09,30,22.30
2017,06,25,09,31,22.40
2017,06,25,09,32,22.60
2017,06,25,09,33,22.70
2017,06,25,09,34,22.80
2017,06,25,09,35,22.90
2017,06,25,09,36,22.90
2017,06,25,09,37,22.90
2017,06,25,09,38,23.00
2017,06,25,09,39,23.10
2017,06,25,09,40,23.20
2017,06,25,09,41,23.30
2017,06,25,09,42,23.40
2017,06,25,09,43,23.50
2017,06,25,09,44,23.50
2017,06,25,09,45,23.60
2017,06,25,09,46,23.60
2017,06,25,09,47,23.70
2017,06,25,09,48,23.70
2017,06,25,09,49,23.70
2017,06,25,09,50,23.80
2017,06,25,09,51,24.00
2017,06,25,09,52,24.10
2017,06,25,09,53,24.20
2017,06,25,09,54,24.30
2017,06,25,09,55,24.30
2017,06,25,09,56,24.40
2017,06,25,09,57,24.40
2017,06,25,09,58,24.40
2017,06,25,09,59,24.50
2017,06,25,10,00,24.50
2017,06,25,10,01,24.50
2017,06,25,10,02,24.50
2017,06,25,10,03,24.50
2017,06,25,10,04,24.50
2017,06,25,10,05,24.50
2017,06,25,10,06,24.50
2017,06,25,10,07,24.60
2017,06,25,10,08,24.60
2017,06,25,10,09,24.60
2017,06,25,10,10,24.60
2017,06,25,10,11,24.60
2017,06,25,10,12,24.60
2017,06,25,10,13,24.60
2017,06,25,10,14,24.60
2017,06,25,10,15,24.70
2017,06,25,10,16,24.70
2017,06,25,10,17,24.80
2017,06,25,10,18,25.00
2017,06,25,10,19,25.10
2017,06,25,10,20,25.10
2017,06,25,10,21,25.10
2017,06,25,10,22,25.20
2017,06,25,10,23,25.30
2017,06,25,10,24,25.40
2017,06,25,10,25,25.50
2017,06,25,10,26,25.50
2017,06,25,10,27,25.50
2017,06,25,10,28,25.40
2017,06,25,10,29,25.40
2017,06,25,10,30,25.40
2017,06,25,10,31,25.40
2017,06,25,10,32,25.40
2017,06,25,10,33,25.40
2017,06,25,10,34,25.40
2017,06,25,10,35,25.40
2017,06,25,10,36,25.40
2017,06,25,10,37,25.40
2017,06,25,10,38,25.50
2017,06,25,10,39,25.50
2017,06,25,10,40,25.60
2017,06,25,10,41,25.70
2017,06,25,10,42,25.70
2017,06,25,10,43,25.70
2017,06,25,10,44,25.70
2017,06,25,10,45,25.60
2017,06,25,10,46,25.60
2017,06,25,10,47,25.60
2017,06,25,10,48,25.60
2017,06,25,10,49,25.60
2017,06,25,10,50,25.70
2017,06,25,10,51,25.70
2017,06,25,10,52,25.70
2017,06,25,10,53,25.80
2017,06,25,10,54,25.80
2017,06,25,10,55,25.90
2017,06,25,10,56,25.90
2017,06,25,10,57,26.00
2017,06,25,10,58,26.00
2017,06,25,10,59,26.10
2017,06,25,11,00,26.10
2017,06,25,11,01,26.20
2017,06,25,11,02,26.30
2017,06,25,11,03,26.30
2017,06,25,11,04,26.40
2017,06,25,11,05,26.50
2017,06,25,11,06,26.50
2017,06,25,11,07,26.50
2017,06,25,11,08,26.50
2017,06,25,11,09,26.50
2017,06,25,11,10,26.60
2017,06,25,11,11,26.60
2017,06,25,11,12,26.60
2017,06,25,11,13,26.60
2017,06,25,11,14,26.60
2017,06,25,11,15,26.70
2017,06,25,11,16,26.70
2017,06,25,11,17,26.70
2017,06,25,11,18,26.70
2017,06,25,11,19,26.70
2017,06,25,11,20,26.70
2017,06,25,11,21,26.70
2017,06,25,11,22,26.70
2017,06,25,11,23,26.70
2017,06,25,11,24,26.70
2017,06,25,11,25,26.80
2017,06,25,11,26,26.70
2017,06,25,11,27,26.70
2017,06,25,11,28,26.70
2017,06,25,11,29,26.70
2017,06,25,11,30,26.80
2017,06,25,11,31,26.80
2017,06,25,11,32,26.80
2017,06,25,11,33,26.90
2017,06,25,11,34,26.90
2017,06,25,11,35,26.90
2017,06,25,11,36,27.00
2017,06,25,11,37,27.00
2017,06,25,11,38,27.00
2017,06,25,11,39,27.00
2017,06,25,11,40,27.00
2017,06,25,11,41,27.00
2017,06,25,11,42,27.00
2017,06,25,11,43,26.90
2017,06,25,11,44,26.80
2017,06,25,11,45,26.80
2017,06,25,11,46,26.70
2017,06,25,11,47,26.70
2017,06,25,11,48,26.70
2017,06,25,11,49,26.60
2017,06,25,11,50,26.70
2017,06,25,11,51,26.70
2017,06,25,11,52,26.70
2017,06,25,11,53,26.80
2017,06,25,11,54,26.80
2017,06,25,11,55,26.80
2017,06,25,11,56,26.90
2017,06,25,11,57,26.90
2017,06,25,11,58,26.90
2017,06,25,11,59,27.00
2017,06,25,12,00,27.00
2017,06,25,12,01,27.10
2017,06,25,12,02,27.10
2017,06,25,12,03,27.20
2017,06,25,12,04,27.20
2017,06,25,12,05,27.30
2017,06,25,12,06,27.40
2017,06,25,12,07,27.40
2017,06,25,12,08,27.40
2017,06,25,12,09,27.40
2017,06,25,12,10,27.40
2017,06,25,12,11,27.40
2017,06,25,12,12,27.50
2017,06,25,12,13,27.50
2017,06,25,12,14,27.50
2017,06,25,12,15,27.60
2017,06,25,12,16,27.60
2017,06,25,12,17,27.60
2017,06,25,12,18,27.70
2017,06,25,12,19,27.80
2017,06,25,12,20,27.80
2017,06,25,12,21,27.80
2017,06,25,12,22,27.80
2017,06,25,12,23,27.80
2017,06,25,12,24,27.80
2017,06,25,12,25,27.80
2017,06,25,12,26,27.80
2017,06,25,12,27,27.70
2017,06,25,12,28,27.70
2017,06,25,12,29,27.80
2017,06,25,12,30,27.80
2017,06,25,12,31,27.80
2017,06,25,12,32,27.90
2017,06,25,12,33,27.90
2017,06,25,12,34,28.00
2017,06,25,12,35,28.00
2017,06,25,12,36,28.10
2017,06,25,12,37,28.10
2017,06,25,12,38,28.10
2017,06,25,12,39,28.10
2017,06,25,12,40,28.00
2017,06,25,12,41,28.00
2017,06,25,12,42,28.00
2017,06,25,12,43,27.90
2017,06,25,12,44,28.00
2017,06,25,12,45,28.00
2017,06,25,12,46,28.10
2017,06,25,12,47,28.10
2017,06,25,12,48,28.10
2017,06,25,12,49,28.10
2017,06,25,12,50,28.00
2017,06,25,12,51,28.00
2017,06,25,12,52,27.90
2017,06,25,12,53,27.90
2017,06,25,12,54,27.80
2017,06,25,12,55,27.80
2017,06,25,12,56,27.70
2017,06,25,12,57,27.70
2017,06,25,12,58,27.70
2017,06,25,12,59,27.80
2017,06,25,13,00,27.80
2017,06,25,13,01,27.70
2017,06,25,13,02,27.70
2017,06,25,13,03,27.60
2017,06,25,13,04,27.70
2017,06,25,13,05,27.70
2017,06,25,13,06,27.70
2017,06,25,13,07,27.80
2017,06,25,13,08,27.80
2017,06,25,13,09,27.80
2017,06,25,13,10,27.80
2017,06,25,13,11,27.80
2017,06,25,13,12,27.80
2017,06,25,13,13,27.80
2017,06,25,13,14,27.80
2017,06,25,13,15,27.70
2017,06,25,13,16,27.70
2017,06,25,13,17,27.70
2017,06,25,13,18,27.80
2017,06,25,13,19,27.80
2017,06,25,13,20,27.80
2017,06,25,13,21,27.80
2017,06,25,13,22,27.80
2017,06,25,13,23,27.80
2017,06,25,13,24,27.80
2017,06,25,13,25,27.70
2017,06,25,13,26,27.70
2017,06,25,13,27,27.60
2017,06,25,13,28,27.60
2017,06,25,13,29,27.60
2017,06,25,13,30,27.60
2017,06,25,13,31,27.60
2017,06,25,13,32,27.70
2017,06,25,13,33,27.70
2017,06,25,13,34,27.70
2017,06,25,13,35,27.70
2017,06,25,13,36,27.60
2017,06,25,13,37,27.60
2017,06,25,13,38,27.50
2017,06,25,13,39,27.50
2017,06,25,13,40,27.40
2017,06,25,13,41,27.40
2017,06,25,13,42,27.40
2017,06,25,13,43,27.40
2017,06,25,13,44,27.40
2017,06,25,13,45,27.50
2017,06,25,13,46,27.50
2017,06,25,13,47,27.60
2017,06,25,13,48,27.60
2017,06,25,13,49,27.70
2017,06,25,13,50,27.80
2017,06,25,13,51,27.90
2017,06,25,13,52,27.90
2017,06,25,13,53,27.80
2017,06,25,13,54,27.80
2017,06,25,13,55,27.80
2017,06,25,13,56,27.90
2017,06,25,13,57,28.00
2017,06,25,13,58,28.10
2017,06,25,13,59,28.10
2017,06,25,14,00,28.00
2017,06,25,14,01,28.00
2017,06,25,14,02,28.00
2017,06,25,14,03,28.00
2017,06,25,14,04,27.90
2017,06,25,14,05,27.90
2017,06,25,14,06,27.90
2017,06,25,14,07,27.80
2017,06,25,14,08,27.70
2017,06,25,14,09,27.60
2017,06,25,14,10,27.60
2017,06,25,14,11,27.60
2017,06,25,14,12,27.50
2017,06,25,14,13,27.50
2017,06,25,14,14,27.50
2017,06,25,14,15,27.50
2017,06,25,14,16,27.60
2017,06,25,14,17,27.60
2017,06,25,14,18,27.60
2017,06,25,14,19,27.70
2017,06,25,14,20,27.60
2017,06,25,14,21,27.60
2017,06,25,14,22,27.60
2017,06,25,14,23,27.50
2017,06,25,14,24,27.50
2017,06,25,14,25,27.50
2017,06,25,14,26,27.50
2017,06,25,14,27,27.50
2017,06,25,14,28,27.50
2017,06,25,14,29,27.50
2017,06,25,14,30,27.50
2017,06,25,14,31,27.60
2017,06,25,14,32,27.60
2017,06,25,14,33,27.70
2017,06,25,14,34,27.70
2017,06,25,14,35,27.70
2017,06,25,14,36,27.70
2017,06,25,14,37,27.70
2017,06,25,14,38,27.70
2017,06,25,14,39,27.70
2017,06,25,14,40,27.60
2017,06,25,14,41,27.60
2017,06,25,14,42,27.60
2017,06,25,14,43,27.70
2017,06,25,14,44,27.80
2017,06,25,14,45,27.80
2017,06,25,14,46,27.80
2017,06,25,14,47,27.80
2017,06,25,14,48,27.80
2017,06,25,14,49,27.80
2017,06,25,14,50,27.80
2017,06,25,14,51,27.80
2017,06,25,14,52,27.70
2017,06,25,14,53,27.70
2017,06,25,14,54,27.80
2017,06,25,14,55,27.80
2017,06,25,14,56,27.80
2017,06,25,14,57,27.80
2017,06,25,14,58,27.80
2017,06,25,14,59,27.80
2017,06,25,15,00,27.80
2017,06,25,15,01,27.90
2017,06,25,15,02,27.90
2017,06,25,15,03,27.90
2017,06,25,15,04,28.00
2017,06,25,15,05,28.00
2017,06,25,15,06,28.00
2017,06,25,15,07,27.90
2017,06,25,15,08,27.90
2017,06,25,15,09,27.90
2017,06,25,15,10,27.90
2017,06,25,15,11,27.90
2017,06,25,15,12,27.90
2017,06,25,15,13,27.90
2017,06,25,15,14,27.90
2017,06,25,15,15,27.90
2017,06,25,15,16,27.90
2017,06,25,15,17,27.90
2017,06,25,15,18,27.90
2017,06,25,15,19,27.90
2017,06,25,15,20,27.90
2017,06,25,15,21,27.90
2017,06,25,15,22,27.90
2017,06,25,15,23,27.90
2017,06,25,15,24,27.80
2017,06,25,15,25,27.80
2017,06,25,15,26,27.70
2017,06,25,15,27,27.70
2017,06,25,15,28,27.60
2017,06,25,15,29,27.70
2017,06,25,15,30,27.80
2017,06,25,15,31,27.90
2017,06,25,15,32,27.90
2017,06,25,15,33,27.90
2017,06,25,15,34,27.90
2017,06,25,15,35,27.80
2017,06,25,15,36,27.80
2017,06,25,15,37,27.80
2017,06,25,15,38,27.80
2017,06,25,15,39,27.70
2017,06,25,15,40,27.70
2017,06,25,15,41,27.60
2017,06,25,15,42,27.60
2017,06,25,15,43,27.60
2017,06,25,15,44,27.50
2017,06,25,15,45,27.50
2017,06,25,15,46,27.40
2017,06,25,15,47,27.50
2017,06,25,15,48,27.50
2017,06,25,15,49,27.60
2017,06,25,15,50,27.60
2017,06,25,15,51,27.50
2017,06,25,15,52,27.50
2017,06,25,15,53,27.40
2017,06,25,15,54,27.40
2017,06,25,15,55,27.40
2017,06,25,15,56,27.30
2017,06,25,15,57,27.30
2017,06,25,15,58,27.40
2017,06,25,15,59,27.40
2017,06,25,16,00,27.40
2017,06,25,16,01,27.40
2017,06,25,16,02,27.40
2017,06,25,16,03,27.40
2017,06,25,16,04,27.40
2017,06,25,16,05,27.40
2017,06,25,16,06,27.40
2017,06,25,16,07,27.30
2017,06,25,16,08,27.30
2017,06,25,16,09,27.30
2017,06,25,16,10,27.30
2017,06,25,16,11,27.20
2017,06,25,16,12,27.00
2017,06,25,16,13,27.00
2017,06,25,16,14,26.90
2017,06,25,16,15,26.90
2017,06,25,16,16,26.80
2017,06,25,16,17,26.80
2017,06,25,16,18,26.80
2017,06,25,16,19,26.80
2017,06,25,16,20,26.80
2017,06,25,16,21,26.80
2017,06,25,16,22,26.80
2017,06,25,16,23,26.80
2017,06,25,16,24,26.80
2017,06,25,16,25,26.80
2017,06,25,16,26,26.80
2017,06,25,16,27,26.90
2017,06,25,16,28,26.90
2017,06,25,16,29,27.00
2017,06,25,16,30,27.00
2017,06,25,16,31,26.90
2017,06,25,16,32,26.90
2017,06,25,16,33,26.90
2017,06,25,16,34,26.90
2017,06,25,16,35,26.80
2017,06,25,16,36,26.90
2017,06,25,16,37,26.90
2017,06,25,16,38,26.90
2017,06,25,16,39,26.90
2017,06,25,16,40,26.90
2017,06,25,16,41,26.90
2017,06,25,16,42,26.90
2017,06,25,16,43,26.90
2017,06,25,16,44,26.90
2017,06,25,16,45,26.80
2017,06,25,16,46,26.80
2017,06,25,16,47,26.80
2017,06,25,16,48,26.80
2017,06,25,16,49,26.80
2017,06,25,16,50,26.80
2017,06,25,16,51,26.80
2017,06,25,16,52,26.80
2017,06,25,16,53,26.70
2017,06,25,16,54,26.70
2017,06,25,16,55,26.70
2017,06,25,16,56,26.70
2017,06,25,16,57,26.70
2017,06,25,16,58,26.70
2017,06,25,16,59,26.70
2017,06,25,17,00,26.70
2017,06,25,17,01,26.80
2017,06,25,17,02,26.80
2017,06,25,17,03,26.80
2017,06,25,17,04,26.80
2017,06,25,17,05,26.90
2017,06,25,17,06,27.00
2017,06,25,17,07,27.00
2017,06,25,17,08,27.00
2017,06,25,17,09,27.10
2017,06,25,17,10,27.10
2017,06,25,17,11,27.10
2017,06,25,17,12,27.10
2017,06,25,17,13,27.10
2017,06,25,17,14,27.10
2017,06,25,17,15,27.10
2017,06,25,17,16,27.10
2017,06,25,17,17,27.10
2017,06,25,17,18,27.00
2017,06,25,17,19,26.90